Flag for Germany Weather past 2 weeks in Memmingen, Bavaria, Germany

Now
56 °F

Overcast.


Feels Like: 56 °F
Forecast: 40 / 68 °F
Wind: 2 mph from Northwest

Location: Kempten


UV Index: 3 (Moderate)

Visibility: 17 mi


Pressure: 29.60 "Hg

Humidity: 65%

Dew point: 44 °F

Location of MemmingenLocation

Historic Weather in Memmingen

°F

Memmingen temperature yesterday

Maximum temperature yesterday: 55 °F (at 6:00 PM)
Minimum temperature yesterday: 34 °F (at 5:00 AM)
Average temperature yesterday: 44 °F

Past Weeks' High & Low Weather Summary

 TemperatureHumidityPressure
High63 °F (Apr 11, 4:00 PM)98% (Apr 19, 2:00 AM)30.42 "Hg (Apr 19, 2:00 AM)
Low25 °F (Apr 17, 7:00 AM)29% (Apr 17, 4:00 PM)29.61 "Hg (Apr 21, 11:00 AM)
Average45 °F73%30.07 "Hg
* Reported Apr 6 12:00 Noon — Apr 21 11:00 AM, Memmingen, Weather by CustomWeather, © 2014

Note: Actual official high and low records may vary slightly from our data, if they occured in-between our weather recording intervals... More about our weather records

Advertising

Historic Weather Conditions — Data for Previous 24 hours

 ConditionsComfort  
Time TempWeatherWind HumidityBarometerVisibility
11:00 AM
Apr 21
55 °FPartly sunny.2 mph69%29.61 "Hg17 mi
10:00 AM52 °FOvercast.1 mph75%29.62 "Hg19 mi
9:00 AM49 °FDrizzle. Overcast.1 mph81%29.63 "Hg14 mi
8:00 AM45 °FPartly sunny.1 mph94%29.65 "Hg7 mi
7:00 AM43 °FOvercast.No wind94%29.66 "Hg6 mi
6:00 AM43 °FOvercast.1 mph93%29.65 "Hg9 mi
4:00 AM43 °FDrizzle. Overcast.1 mph96%29.67 "Hg6 mi
3:00 AM41 °FFog.2 mph96%29.68 "Hg4 mi
2:00 AM40 °FFog.1 mph96%29.70 "Hg4 mi
1:00 AM39 °FOvercast.1 mph95%29.71 "Hg6 mi
12:00 AM40 °FOvercast.1 mph94%29.71 "Hg6 mi
11:00 PM
Apr 20
43 °FOvercast.1 mph92%29.70 "Hg9 mi
10:00 PM46 °FPassing clouds.1 mph88%29.70 "Hg11 mi
9:00 PM49 °FOvercast.No wind83%29.67 "Hg17 mi
8:00 PM53 °FOvercast.1 mph70%29.65 "Hg19 mi
7:00 PM54 °FOvercast.2 mph66%29.64 "Hg25 mi
6:00 PM55 °FPassing clouds.3 mph63%29.65 "Hg25 mi
4:00 PM54 °FPartly sunny.3 mph73%29.66 "Hg16 mi
3:00 PM54 °FOvercast.3 mph73%29.67 "Hg12 mi
2:00 PM50 °FOvercast.3 mph80%29.70 "Hg7 mi
1:00 PM49 °FOvercast.2 mph85%29.71 "Hg6 mi
12:00 PM47 °FLow clouds.2 mph86%29.71 "Hg7 mi
Weather by CustomWeather, © 2014

See weather overview